Regional Weather Roundup
Issued by NWS Sioux Falls, SD

Home | Current Version | Previous Version | Text Only | Print | Product List | Glossary On
Versions: 1 2 3 4 5 6 7 8 9 10 11 12 13 14 15 16 17 18 19 20 21 22 23 24 25 26 27 28 29 30 31 32 33 34 35 36 37 38 39 40 41 42 43 44 45 46 47 48 49 50
000
ASUS43 KFSD 120410
RWRFSD

WEATHER ROUNDUP FOR SE SOUTH DAKOTA/SW MINNESOTA/NW IOWA
NATIONAL WEATHER SERVICE SIOUX FALLS SD
1100 PM CDT FRI JUL 11 2014

NOTE: "FAIR" INDICATES FEW OR NO CLOUDS BELOW 12,000 FEET WITH NO
SIGNIFICANT WEATHER AND OR OBSTRUCTIONS TO VISIBILITY.


SDZ038>040-050-052>070-120500-
SOUTHEAST SOUTH DAKOTA

CITY           SKY/WX    TMP DP  RH WIND       PRES   REMARKS
CHAMBERLAIN    CLOUDY    78  68  72 CALM      30.01F
HURON          CLOUDY    79  69  71 SE5       29.99R
MADISON        FAIR      73  73 100 S7        30.04S
MITCHELL       CLOUDY    79  75  87 S5        30.00R
SIOUX FALLS    CLOUDY    76  72  87 CALM      30.02S
WINNER         FAIR      79  64  60 CALM      30.01F
YANKTON          N/A    N/A N/A N/A MISG        N/A
$$

MNZ071-072-080-081-089-090-097-098-120500-
SOUTHWEST MINNESOTA

CITY           SKY/WX    TMP DP  RH WIND       PRES   REMARKS
FAIRMONT       CLEAR     72  66  83 S8        30.02S
JACKSON        MOCLDY    73  68  83 SW6       30.04R
LUVERNE        CLOUDY    72  70  94 CALM      30.04S FOG
MARSHALL       MOCLDY    77  72  83 W10       29.99S
MONTEVIDEO     PTCLDY    75  70  83 S3        30.00R
PIPESTONE      CLOUDY    73  70  88 CALM      30.05R FOG
REDWOOD FALLS  MOCLDY    76  72  87 SE3       29.99R
TRACY          MOCLDY    75  73  91 SW6       30.02R
WINDOM         MOCLDY    73  70  88 W3        30.03R
WORTHINGTON    CLOUDY    73  70  88 SW6       30.06R
$$

IAZ001>003-012>014-020>022-031-032-NEZ013-014-SDZ071-120500-
NORTHWEST IOWA

CITY           SKY/WX    TMP DP  RH WIND       PRES   REMARKS
CHEROKEE       LGT RAIN  71  71 100 CALM      30.03F
DENISON        CLOUDY    72  72 100 NE6       30.02R
ESTHERVILLE    MOCLDY    71  69  93 S6        30.04R
LE MARS        CLOUDY    73  72  94 CALM      30.02F FOG
ORANGE CITY    DRIZZLE   73  70  88 CALM      30.04S
SHELDON        CLOUDY    72  70  94 S3        30.03S FOG
SIOUX CITY     CLOUDY    73  71  93 E5        30.00F
SPENCER        CLOUDY    72  69  90 S6        30.05R
STORM LAKE     FOG       70  70 100 CALM      30.06S VSB 1
$$

ABBREVIATIONS USED IN REMARKS
   TC - TEMPERATURE IN CELSIUS
  WCI - WIND CHILL INDEX
   HX - HEAT INDEX
  VSB - VISIBILITY




USA.gov is the U.S. government's official web portal to all federal, state and local government web resources and services.